Data Trawler - Search Events

Please login if you have access to particular applications.
Username:
Password:

Search for events by voyage, equipment, action or within comments.

Event count for each voyage, equipment or action is shown in ().

Voyage(s)
Elog Set(s)
Equipment(s)
Action
Search for - within subject, event identifier, comments etc.(case insensitive)
Highlight matches

Caveat: this event log was authored on the voyage using either a standalone logging system called ELOG or more recently an inhouse event logging tool called Everlog. For this reason, some positions are unknown and may be resolved using the logged time and the underway dataset for the voyage.

Events ordered by start time:- Click on column header to sort. Use link on 'When' to see full details. Use the CSV button at the bottom to export data.

Survey When (UTC) LatitudeLongitude InstrumentIdentifierActionLogSubject / Comments
IN2021_T01 2021-06-10 06:15 [view ] -27.4165 153.1415 Gravity Meter [view] Start GSM_in2021_t01 Start Logging Gravity Meter
IN2021_T01 2021-06-10 07:48 [view ] -27.4165 153.1415 Techsas1 [view] Start in2021_t01
IN2021_T01 2021-06-10 07:49 [view ] -27.4165 153.1415 Techsas2 [view] Start in2021_t01
IN2021_T01 2021-06-10 23:05 [view ] -26.7098 153.2548 Drop Keels in2021_t01 flush with gondola
IN2021_T01 2021-06-11 01:57 [view ] -26.5713 153.2882 ADCP [view] Start in2021_t01
IN2021_T01 2021-06-11 02:52 [view ] -26.4310 153.3558 TSG [view] Start in2021_t01 started for T01
IN2021_T01 2021-06-11 02:53 [view ] -26.4285 153.3572 Fluorometer [view] Start in2021_t01 started for T01
IN2021_T01 2021-06-11 02:57 [view ] -26.4190 153.3617 pCO2 [view] Start in2021_t01 Start of IN_T01_2021
IN2021_T01 2021-06-11 03:01 [view ] -26.4098 153.3660 SBP [view] Start GSM_in2021_t01 Start Logging SBP120
IN2021_T01 2021-06-11 03:08 [view ] -26.3905 153.3753 Techsas2 [view] Stop in2021_t01
IN2021_T01 2021-06-11 03:12 [view ] -26.3790 153.3808 Techsas2 [view] Start in2021_t01
IN2021_T01 2021-06-11 03:13 [view ] -26.3782 153.3813 Techsas1 [view] Stop in2021_t01
IN2021_T01 2021-06-11 03:16 [view ] -26.3712 153.3847 Techsas1 [view] Start in2021_t01
IN2021_T01 2021-06-11 04:21 [view ] -26.2025 153.4660 ADCP [view] restarted in2021_t01 Turn bottom tracking off
IN2021_T01 2021-06-11 06:02 [view ] -25.9462 153.5893 Underway Peter Hughes Hydrochem Lab : tsg001 Sample TSG_Samples_in2021_t01
IN2021_T01 2021-06-11 06:02 [view ] -25.9462 153.5893 Underway Peter Hughes Hydrochem Lab : tsg002 Sample TSG_Samples_in2021_t01
IN2021_T01 2021-06-11 06:06 [view ] -25.9362 153.5942 Underway Peter Hughes Hydrochem Lab : tsg003 Sample TSG_Samples_in2021_t01
IN2021_T01 2021-06-11 06:31 [view ] -25.8738 153.6240 carbon_in2021_t01 DIC Time: 06:31 UTC Alk Time: 06:31 UTC
IN2021_T01 2021-06-11 06:39 [view ] -25.8540 153.6337 DIC/alk sample Sample in2021_t01 DIC + alk Sample 1 DIC Time: UTC 06:31 Alk Time: UTC 06.:31 Temp: 23.24 Salinity: 35.36
IN2021_T01 2021-06-11 06:56 [view ] -25.8120 153.6538 flowthrough_in2021_t01
IN2021_T01 2021-06-11 06:56 [view ] -25.8102 153.6547 flowthrough_in2021_t01 Sample 1
IN2021_T01 2021-06-11 08:00 [view ] -25.6547 153.7292 EK80 [view] Start GSM_in2021_t01 Start logging EK80 IMOS standard settings approx start time
IN2021_T01 2021-06-11 09:35 [view ] -25.4435 153.8447 EK80 [view] Other GSM_in2021_t01 Change to 1500m logging range on EK80 Change to 1500m logging range on EK80
IN2021_T01 2021-06-11 10:20 [view ] -25.3325 153.8900 EM122 [view] Start GSM_in2021_t01 Start logging EM122
IN2021_T01 2021-06-11 10:21 [view ] -25.3312 153.8907 EM710 [view] Stop GSM_in2021_t01 Stop logging Em710
IN2021_T01 2021-06-11 12:03 [view ] -25.0742 154.0068 Techsas1 [view] in2021_t01 Restarted to enable recording flag for UBAT.
IN2021_T01 2021-06-11 12:03 [view ] -25.0720 154.0078 Techsas2 [view] in2021_t01 Restarted to enable recording flag for UBAT.
IN2021_T01 2021-06-11 12:15 [view ] -25.0413 154.0225 EM122 [view] SVP GSM_in2021_t01 New SVP in2021_t01_sst_004.asvp New SVP in2021_t01_sst_004.asvp sst: 24.01 sal: 35.38
IN2021_T01 2021-06-11 12:26 [view ] -25.0102 154.0373 carbon_in2021_t01 DIC Time: UTC 12.23 Alk Time: UTC 12.23
IN2021_T01 2021-06-11 12:34 [view ] -24.9888 154.0475 flowthrough_in2021_t01 Sample 2
IN2021_T01 2021-06-11 12:34 [view ] -24.9873 154.0482 flowthrough_in2021_t01
IN2021_T01 2021-06-11 15:50 [view ] -24.6713 154.1680 CTD [view] 1 in2021_t01 CTD 1 deployed and recovered OK to 1000m. Deployed 1424, recovered 1520.
IN2021_T01 2021-06-11 16:38 [view ] -24.5185 154.1685 Radon Detector [view] Maintenance Atmospherics calibration started
IN2021_T01 2021-06-11 20:23 [view ] -23.7852 154.1705 flowthrough_in2021_t01 Sample 3
IN2021_T01 2021-06-11 20:44 [view ] -23.7177 154.1707 carbon_in2021_t01 DIC Time: UTC 20:44 Alk Time: UTC 20:44
IN2021_T01 2021-06-11 20:59 [view ] -23.6698 154.1708 flowthrough_in2021_t01
IN2021_T01 2021-06-11 22:21 [view ] -23.4063 154.1715 EM710 [view] Start GSM_in2021_t01 Stat Recording EM710
IN2021_T01 2021-06-12 02:30 [view ] -22.5853 154.1737 flowthrough_in2021_t01 Sample 4
IN2021_T01 2021-06-12 02:32 [view ] -22.5805 154.1737 carbon_in2021_t01 DIC Time: 02:32 UTC Alk Time: 02:32 UTC
IN2021_T01 2021-06-12 02:38 [view ] -22.5595 154.1737 flowthrough_in2021_t01
IN2021_T01 2021-06-12 04:31 [view ] -22.1970 154.1737 EM710 [view] Stop GSM_in2021_t01 Stop logging em710 Stop logging em710 ~1000m WD
IN2021_T01 2021-06-12 08:07 [view ] -21.4975 154.1205 carbon_in2021_t01 DIC Time: 08:06 UTC Alk Time: 08:06 UTC
IN2021_T01 2021-06-12 08:12 [view ] -21.4817 154.1185 flowthrough_in2021_t01
IN2021_T01 2021-06-12 08:12 [view ] -21.4810 154.1185 flowthrough_in2021_t01 Sample 5
IN2021_T01 2021-06-12 08:39 [view ] -21.4518 154.1183 CTD [view] Deployed in2021_t01 Deployment 2, LADCP on and pinging
IN2021_T01 2021-06-12 11:37 [view ] -21.4563 154.1222 CTD [view] Deployed in2021_t01 CTD to 200m with UBAT
IN2021_T01 2021-06-12 12:15 [view ] -21.4583 154.1210 CTD [view] 03 Recover in2021_t01 CTD 3, 200m with UBAT and LADCP sucesfully retrieved
IN2021_T01 2021-06-12 13:09 [view ] -21.4557 154.1238 Hydro-Bios tow [view] Woody Drummond 1 Deployed in2021_t01
IN2021_T01 2021-06-12 13:58 [view ] -21.4447 154.1262 Hydro-Bios tow [view] Woody Drummond 1 Stop in2021_t01
IN2021_T01 2021-06-12 14:10 [view ] -21.4423 154.1267 Hydro-Bios tow [view] Woody Drummond 2 Deployed in2021_t01
IN2021_T01 2021-06-12 14:26 [view ] -21.4402 154.1270 Hydro-Bios tow [view] Woody Drummond 2 Stop in2021_t01
IN2021_T01 2021-06-12 14:58 [view ] -21.4393 154.1272 Hydro-Bios tow [view] Woody Drummond 3 Deployed in2021_t01
IN2021_T01 2021-06-12 15:14 [view ] -21.4298 154.1300 Hydro-Bios tow [view] Woody Drummond 4 Deployed in2021_t01
IN2021_T01 2021-06-12 15:14 [view ] -21.4300 154.1300 Hydro-Bios tow [view] Woody Drummond 3 Stop in2021_t01
IN2021_T01 2021-06-12 15:29 [view ] -21.4280 154.1312 Hydro-Bios tow [view] Woody Drummond 4 Stop in2021_t01
IN2021_T01 2021-06-12 15:37 [view ] -21.4265 154.1320 Hydro-Bios tow [view] Woody Drummond 5 Deployed in2021_t01
IN2021_T01 2021-06-12 15:53 [view ] -21.4248 154.1333 Hydro-Bios tow [view] Woody Drummond 6 Deployed in2021_t01
IN2021_T01 2021-06-12 16:08 [view ] -21.4228 154.1343 Hydro-Bios tow [view] Woody Drummond 6 Stop in2021_t01
IN2021_T01 2021-06-12 20:12 [view ] -20.9815 153.5182 SBP [view] Restart GSM_in2021_t01 SBP120 crash and restart SBP120 crashed then tripped breaker on restart, restarted software (-30dB power set) then re-powered sbp120
IN2021_T01 2021-06-12 21:04 [view ] -20.9048 153.3673 flowthrough_in2021_t01 Sample 6
IN2021_T01 2021-06-12 21:04 [view ] -20.9047 153.3670 carbon_in2021_t01 DIC Time: 21:04 UTC Alk Time: 21:04 UTC First sample after stopping for 8hrs
IN2021_T01 2021-06-12 21:13 [view ] -20.8913 153.3408 flowthrough_in2021_t01
IN2021_T01 2021-06-12 21:40 [view ] -20.8515 153.2627 EM710 [view] Start GSM_in2021_t01 Start logging EM710
IN2021_T01 2021-06-12 23:23 [view ] -20.6997 152.9645 CCNC [view] Start Atmospherics Startup following more repairs. drawing air from filter
IN2021_T01 2021-06-13 02:33 [view ] -20.4415 152.4587 carbon_in2021_t01 DIC Time: 02:33 UTC Alk Time: 02:33 UTC
IN2021_T01 2021-06-13 02:37 [view ] -20.4350 152.4460 flowthrough_in2021_t01
IN2021_T01 2021-06-13 02:37 [view ] -20.4363 152.4483 flowthrough_in2021_t01 Sample 7
IN2021_T01 2021-06-13 02:53 [view ] -20.4148 152.4063 Underway Stephen Tibben Hydrochem Lab : tsg004 Sample TSG_Samples_in2021_t01
IN2021_T01 2021-06-13 02:57 [view ] -20.4090 152.3950 Underway Ella Pietraroia Hydrochem Lab : tsg005 Sample TSG_Samples_in2021_t01
IN2021_T01 2021-06-13 03:02 [view ] -20.4025 152.3822 Underway David Webb Hydrochem Lab : tsg006 Sample TSG_Samples_in2021_t01
IN2021_T01 2021-06-13 04:35 [view ] -20.2587 152.1482 CCNC [view] Observation Atmospherics leak corrected, system appears working I think I have the CCNC working. Main repairs were: - to remove the contaminated tubing between the column solenoid pump, cold trap solenoid pump, and drain bottle. I also changed the column solenoid pump but in hindsight I don& 39;t think that was actually faulty. - The nafion humidifier tube was dry and coiled up inside the humidifier chamber. I had to really soak and stretch it to get it long enough to reinstall - The sheath flow filter and frit filter were saturated. I replaced the sheath flow filter and dried out the frit filter in the oven - on reassembly I had a leak or leaks. I tried almost all fittings as I had had most off. the final, and probably original leak i had was the connection to the tee at the upper side of the frit filter that goes to the sheath flow differential pressure sensor. The tubing had split slightly. I trimmed the end of the tube and remade the connection. All zeros!!!!
IN2021_T01 2021-06-13 04:47 [view ] -20.2405 152.1198 CCNC [view] Start Atmospherics CCNC sampling from inlet following repairs (for real) Repairs seem stable. Flow rates were stable for >4hrs. Zero check has been successful for 15 mins. MilliQ topped up. System drawing from main inlet. .
IN2021_T01 2021-06-13 08:01 [view ] -19.9307 151.6383 carbon_in2021_t01 DIC Time: 08:01 UTC Alk Time: 08:01 UTC
IN2021_T01 2021-06-13 08:06 [view ] -19.9233 151.6270 flowthrough_in2021_t01
IN2021_T01 2021-06-13 08:06 [view ] -19.9227 151.6258 flowthrough_in2021_t01 Sample 8
IN2021_T01 2021-06-13 08:10 [view ] -19.9157 151.6152 EM710 [view] SVP GSM_in2021_t01 New SVP in2021_t01_sst_010.asvp New SVP in2021_t01_sst_010.asvp sst: 24.99 sal: 35.06
IN2021_T01 2021-06-13 08:10 [view ] -19.9157 151.6152 EM122 [view] SVP GSM_in2021_t01 New SVP in2021_t01_sst_010.asvp New SVP in2021_t01_sst_010.asvp sst: 24.99 sal: 35.06
IN2021_T01 2021-06-13 11:27 [view ] -19.6310 151.1057 EM710 [view] SVP GSM_in2021_t01 New SVP in2021_t01_sst_011.asvp New SVP in2021_t01_sst_011.asvp sst: 25.09 sal: 35.07
IN2021_T01 2021-06-13 11:27 [view ] -19.6310 151.1057 EM122 [view] SVP GSM_in2021_t01 New SVP in2021_t01_sst_011.asvp New SVP in2021_t01_sst_011.asvp sst: 25.09 sal: 35.07
IN2021_T01 2021-06-13 13:28 [view ] -19.4837 150.7793 carbon_in2021_t01 DIC Time: 13:28 UTC Alk Time: 13:28 UTC
IN2021_T01 2021-06-13 13:32 [view ] -19.4788 150.7687 flowthrough_in2021_t01
IN2021_T01 2021-06-13 13:32 [view ] -19.4785 150.7677 flowthrough_in2021_t01 Sample 9
IN2021_T01 2021-06-13 14:10 [view ] -19.4323 150.6657 EM122 [view] SVP GSM_in2021_t01 New SVP in2021_t01_sst_012.asvp New SVP in2021_t01_sst_012.asvp sst: 25.14 sal: 34.94
IN2021_T01 2021-06-13 14:10 [view ] -19.4323 150.6657 EM710 [view] SVP GSM_in2021_t01 New SVP in2021_t01_sst_012.asvp New SVP in2021_t01_sst_012.asvp sst: 25.14 sal: 34.94
IN2021_T01 2021-06-13 16:25 [view ] -19.2720 150.3110 Air Chem Lab [view] Change Atmospherics Lab temp setpoint increased to 25C Lab temp setpoint was 21C, fan at speed 2 (of 3). Manifold was at max humidity. increased setpoint to 25C, reduced fan speed to 1. Will monitor the manifold temperature
IN2021_T01 2021-06-13 16:28 [view ] -19.2695 150.3055 Air Chem Manifold Observation Atmospherics humidity 100% humidity has hit 100%. outside dewpoint 22C, lab temp 21C I have increased the lab temperature setpoint to 25.
IN2021_T01 2021-06-13 16:34 [view ] -19.2623 150.2893 EM710 [view] SVP GSM_in2021_t01 New SVP in2021_t01_sst_013.asvp New SVP in2021_t01_sst_013.asvp sst: 25.34 sal: 35.03
IN2021_T01 2021-06-13 16:36 [view ] -19.2598 150.2840 EM122 [view] SVP GSM_in2021_t01 New SVP in2021_t01_sst_013.asvp New SVP in2021_t01_sst_013.asvp sst: 25.34 sal: 35.03
IN2021_T01 2021-06-13 18:55 [view ] -19.0912 149.9110 SMPS [view] Start Atmospherics connected to inlet and switched on
IN2021_T01 2021-06-13 18:55 [view ] -19.0912 149.9112 SMPS [view] Fault Atmospherics not connected properly - air leak ino aerosol systems 16/6 23:26 - I just found that the air inlet tube was not connected properly. air has been sucked into the sampling system since I connected up the SMPS on 13/6 18:55. This will have affected the SMPS, and CPCs. It is possible that it will have affected the.nephelometer and CCNC. It is possible, but I think unlikely, that it also affected the ozone and greenhouse gas system, depending on the interactions in the manifold and sample lines.
IN2021_T01 2021-06-13 19:28 [view ] -19.0517 149.8238 EM710 [view] SVP GSM_in2021_t01 New SVP in2021_t01_sst_014.asvp New SVP in2021_t01_sst_014.asvp sst: 25.28 sal: 35.11
IN2021_T01 2021-06-13 19:30 [view ] -19.0493 149.8190 EM122 [view] SVP GSM_in2021_t01 New SVP in2021_t01_sst_014.asvp New SVP in2021_t01_sst_014.asvp sst: 25.28 sal: 35.11
IN2021_T01 2021-06-13 20:25 [view ] -18.9920 149.6932 EM710 [view] Stop GSM_in2021_t01 Stop logging at stn CTD003 Too shallow at planned station - relocating.
IN2021_T01 2021-06-13 20:31 [view ] -18.9918 149.6932 EM122 [view] Stop GSM_in2021_t01 Stop logging at stn CTD003 Too shallow at planned station - relocating.
IN2021_T01 2021-06-13 20:37 [view ] -18.9930 149.6917 Underway Stephen Tibben Hydrochem Lab : tsg007 Sample TSG_Samples_in2021_t01
IN2021_T01 2021-06-13 20:38 [view ] -18.9932 149.6913 Underway Stephen Tibben Hydrochem Lab : tsg008 Sample TSG_Samples_in2021_t01
IN2021_T01 2021-06-13 20:39 [view ] -18.9933 149.6912 Underway Stephen Tibben Hydrochem Lab : tsg009 Sample TSG_Samples_in2021_t01
IN2021_T01 2021-06-13 20:58 [view ] -18.9933 149.6935 pCO2 [view] Cleaned in2021_t01 pCO2 filter cleaned
IN2021_T01 2021-06-13 21:00 [view ] -18.9935 149.6932 ASVCO2 Maintenance in2021_t01 Flow rate re-adjusted
IN2021_T01 2021-06-13 21:02 [view ] -18.9938 149.6925 TSG [view] Cleaned in2021_t01 Filter Cleaned
IN2021_T01 2021-06-13 21:03 [view ] -18.9940 149.6923 Fluorometer [view] Cleaned in2021_t01 Fluorometer cleaned
IN2021_T01 2021-06-13 21:07 [view ] -18.9903 149.6913 EM710 [view] Start GSM_in2021_t01 Start logging EM710
IN2021_T01 2021-06-13 21:09 [view ] -18.9838 149.6880 EM122 [view] Start GSM_in2021_t01 Start logging EM122
IN2021_T01 2021-06-13 21:16 [view ] -18.9730 149.6825 EM710 [view] SVP GSM_in2021_t01 New SVP in2021_t01_sst_015.asvp New SVP in2021_t01_sst_015.asvp sst: 25.3 sal: 35.12
IN2021_T01 2021-06-13 21:17 [view ] -18.9708 149.6817 EM122 [view] SVP GSM_in2021_t01 New SVP in2021_t01_sst_015.asvp New SVP in2021_t01_sst_015.asvp sst: 25.3 sal: 35.12
IN2021_T01 2021-06-13 22:00 [view ] -18.8655 149.6337 carbon_in2021_t01
IN2021_T01 2021-06-13 22:06 [view ] -18.8495 149.6247 flowthrough_in2021_t01 Sample 10
IN2021_T01 2021-06-13 22:06 [view ] -18.8495 149.6247 flowthrough_in2021_t01
IN2021_T01 2021-06-13 22:25 [view ] -18.8068 149.6007 CCNC [view] Atmospherics Logged in remotely to check - additional load on PC meant flows went bad temporarily
IN2021_T01 2021-06-13 22:31 [view ] -18.7923 149.5925 EM710 [view] SVP GSM_in2021_t01 New SVP in2021_t01_sst_016.asvp New SVP in2021_t01_sst_016.asvp sst: 25.42 sal: 35.15
IN2021_T01 2021-06-13 22:33 [view ] -18.7880 149.5902 EM122 [view] SVP GSM_in2021_t01 New SVP in2021_t01_sst_016.asvp New SVP in2021_t01_sst_016.asvp sst: 25.42 sal: 35.15
IN2021_T01 2021-06-13 23:42 [view ] -18.6418 149.5307 EM710 [view] Stop GSM_in2021_t01 Stop logging EM710 ~1000m depth
IN2021_T01 2021-06-14 00:51 [view ] -18.5912 149.5420 EM122 [view] Stop GSM_in2021_t01 Stop logging EM122 for station CTD003
IN2021_T01 2021-06-14 01:03 [view ] -18.5912 149.5403 CTD [view] 4 Start in2021_t01 Station 2 - 1000m
IN2021_T01 2021-06-14 03:49 [view ] -18.6003 149.5427 CTD [view] 4 Retrieved in2021_t01 retrieved at ~0200
IN2021_T01 2021-06-14 03:57 [view ] -18.6002 149.5425 CTD [view] 5 Deployed in2021_t01
IN2021_T01 2021-06-14 04:23 [view ] -18.5998 149.5418 CTD [view] 5 Recover in2021_t01
IN2021_T01 2021-06-14 05:38 [view ] -18.5842 149.5610 Hydro-Bios tow [view] Woody Drummond Cod end 1 1000m Deployed in2021_t01
IN2021_T01 2021-06-14 05:53 [view ] -18.5773 149.5687 Hydro-Bios tow [view] Woody Drummond Cod end 1 1000m Stop in2021_t01
IN2021_T01 2021-06-14 05:53 [view ] -18.5797 149.5658 Hydro-Bios tow [view] Woody Drummond cod end 2 1000m Deployed in2021_t01
IN2021_T01 2021-06-14 06:08 [view ] -18.5757 149.5710 Hydro-Bios tow [view] Woody Drummond Cod end 2 1000m Stop in2021_t01
IN2021_T01 2021-06-14 07:01 [view ] -18.5623 149.5883 Hydro-Bios tow [view] Woody Drummond Cod end 4 85m Deployed in2021_t01
IN2021_T01 2021-06-14 07:16 [view ] -18.5575 149.5937 Hydro-Bios tow [view] Woody Drummond Cod end 4 85m Stop in2021_t01
IN2021_T01 2021-06-14 07:16 [view ] -18.5575 149.5937 Hydro-Bios tow [view] Woody Drummond Cod end 5 85m Deployed in2021_t01
IN2021_T01 2021-06-14 07:31 [view ] -18.5530 149.5988 Hydro-Bios tow [view] Woody Drummond Cod end 5 85m Stop in2021_t01
IN2021_T01 2021-06-14 07:37 [view ] -18.5515 149.6008 Hydro-Bios tow [view] Woody Drummond Cod end 7 10m Deployed in2021_t01
IN2021_T01 2021-06-14 07:52 [view ] -18.5470 149.6062 Hydro-Bios tow [view] Woody Drummond Cod end 7 10m Stop in2021_t01
IN2021_T01 2021-06-14 07:52 [view ] -18.5470 149.6062 Hydro-Bios tow [view] Woody Drummond Cod end 8 10m Deployed in2021_t01
IN2021_T01 2021-06-14 08:02 [view ] -18.5438 149.6093 carbon_in2021_t01 DIC Time: 08:01 UTC Alk Time: 08:01 UTC
IN2021_T01 2021-06-14 08:07 [view ] -18.5420 149.6115 Hydro-Bios tow [view] Woody Drummond Cod end 8 10m Stop in2021_t01
IN2021_T01 2021-06-14 08:08 [view ] -18.5417 149.6118 flowthrough_in2021_t01 Sample 11
IN2021_T01 2021-06-14 09:23 [view ] -18.4715 149.4743 EM122 [view] SVP GSM_in2021_t01 New SVP in2021_t01_sst_017.asvp New SVP in2021_t01_sst_017.asvp sst: 25.42 sal: 35.16
IN2021_T01 2021-06-14 13:04 [view ] -18.1702 148.8473 carbon_in2021_t01 DIC Time: 13:04 UTC Alk Time: 13:04 UTC
IN2021_T01 2021-06-14 13:09 [view ] -18.1642 148.8352 flowthrough_in2021_t01 Sample 12
IN2021_T01 2021-06-14 15:01 [view ] -18.0692 148.5197 EM122 [view] SVP GSM_in2021_t01 New SVP in2021_t01_sst_018.asvp New SVP in2021_t01_sst_018.asvp sst: 25.89 sal: 34.99
IN2021_T01 2021-06-14 17:01 [view ] -18.0120 148.1632 EM122 [view] SVP GSM_in2021_t01 New SVP in2021_t01_sst_019.asvp New SVP in2021_t01_sst_019.asvp sst: 25.7 sal: 34.78
IN2021_T01 2021-06-14 19:45 [view ] -17.7773 147.7413 EM122 [view] SVP GSM_in2021_t01 New SVP in2021_t01_sst_020.asvp New SVP in2021_t01_sst_020.asvp sst: 26.0 sal: 34.59
IN2021_T01 2021-06-14 20:16 [view ] -17.7268 147.6658 carbon_in2021_t01
IN2021_T01 2021-06-14 20:26 [view ] -17.7117 147.6430 flowthrough_in2021_t01 Sample 13
IN2021_T01 2021-06-14 20:35 [view ] -17.6972 147.6213 EM122 [view] SVP GSM_in2021_t01 New SVP in2021_t01_sst_021.asvp New SVP in2021_t01_sst_021.asvp sst: 25.89 sal: 34.61
IN2021_T01 2021-06-14 20:46 [view ] -17.6810 147.5973 ASVCO2 Maintenance in2021_t01 Flowrate re-adjusted
IN2021_T01 2021-06-14 22:48 [view ] -17.4840 147.3027 EM122 [view] SVP GSM_in2021_t01 New SVP in2021_t01_sst_021.asvp New SVP in2021_t01_sst_021.asvp sst: 26.1 sal: 34.54
IN2021_T01 2021-06-14 23:58 [view ] -17.3565 147.1120 EM122 [view] SVP GSM_in2021_t01 New SVP in2021_t01_sst_023.asvp New SVP in2021_t01_sst_023.asvp sst: 25.81 sal: 34.80
IN2021_T01 2021-06-15 01:31 [view ] -17.1267 146.9303 carbon_in2021_t01
IN2021_T01 2021-06-15 01:31 [view ] -17.1248 146.9297 flowthrough_in2021_t01 Sample 14
IN2021_T01 2021-06-15 01:33 [view ] -17.1183 146.9272 EM122 [view] SVP GSM_in2021_t01 New SVP in2021_t01_sst_024.asvp New SVP in2021_t01_sst_024.asvp sst: 25.64 sal: 34.76
IN2021_T01 2021-06-15 03:17 [view ] -16.8110 146.8058 EM122 [view] SVP GSM_in2021_t01 New SVP in2021_t01_sst_025.asvp New SVP in2021_t01_sst_025.asvp sst: 26.16 sal: 34.63
IN2021_T01 2021-06-15 03:24 [view ] -16.7900 146.7975 SBP [view] Restart GSM_in2021_t01 Restart SBP120 as apparent problem with some logged data files Restart SBP120 as apparent problem with some logged data files
IN2021_T01 2021-06-15 04:24 [view ] -16.6102 146.7145 Radon Detector [view] Fault Atmospherics Software crashed - restarted Overflow error
IN2021_T01 2021-06-15 07:08 [view ] -16.1648 146.4565 carbon_in2021_t01 DIC Time: 07:08 UTC Alk Time: 07:08 UTC
IN2021_T01 2021-06-15 07:12 [view ] -16.1548 146.4515 flowthrough_in2021_t01 Sample 15
IN2021_T01 2021-06-15 07:49 [view ] -16.0953 146.4483 CTD [view] 6 Deployed in2021_t01 Dep 6 to 1000m
IN2021_T01 2021-06-15 08:45 [view ] -16.0927 146.4530 CTD [view] Recover in2021_t01
IN2021_T01 2021-06-15 10:39 [view ] -16.0908 146.4563 CTD [view] 7 Retrieved in2021_t01 200m cast with UBAT. Forgot to log start, cast took 38 mins.
IN2021_T01 2021-06-15 11:59 [view ] -16.1020 146.4782 Hydro-Bios tow [view] Woody Drummond Cod end 1 1000m Start in2021_t01
IN2021_T01 2021-06-15 12:14 [view ] -16.1050 146.4838 Hydro-Bios tow [view] Woody Drummond Cod end 1 1000m Stop in2021_t01
IN2021_T01 2021-06-15 12:14 [view ] -16.1053 146.4847 Hydro-Bios tow [view] Woody Drummond Cod end 2 1000m Start in2021_t01
IN2021_T01 2021-06-15 12:29 [view ] -16.1080 146.4895 Hydro-Bios tow [view] Woody Drummond Cod end 2 1000m Stop in2021_t01
IN2021_T01 2021-06-15 13:12 [view ] -16.1178 146.5055 Hydro-Bios tow [view] Woody Drummond Cod end 4 95m Start in2021_t01
IN2021_T01 2021-06-15 13:27 [view ] -16.1207 146.5115 Hydro-Bios tow [view] Woody Drummond Cod end 4 95m Stop in2021_t01
IN2021_T01 2021-06-15 13:27 [view ] -16.1207 146.5115 Hydro-Bios tow [view] Woody Drummond Cod end 5 95m Start in2021_t01
IN2021_T01 2021-06-15 13:42 [view ] -16.1230 146.5170 Hydro-Bios tow [view] Woody Drummond Cod end 5 95m Stop in2021_t01
IN2021_T01 2021-06-15 13:47 [view ] -16.1238 146.5190 Hydro-Bios tow [view] Woody Drummond Cod end 7 10m Start in2021_t01
IN2021_T01 2021-06-15 14:02 [view ] -16.1265 146.5245 Hydro-Bios tow [view] Woody Drummond Cod end 7 10m Stop in2021_t01
IN2021_T01 2021-06-15 14:03 [view ] -16.1265 146.5247 Hydro-Bios tow [view] Woody Drummond Cod end 8 10m Start in2021_t01
IN2021_T01 2021-06-15 14:17 [view ] -16.1292 146.5308 Hydro-Bios tow [view] Woody Drummond Cod end 8 10m Stop in2021_t01
IN2021_T01 2021-06-15 16:18 [view ] -15.8715 146.4047 EM122 [view] SVP GSM_in2021_t01 New SVP in2021_t01_sst_026.asvp New SVP in2021_t01_sst_026.asvp sst: 26.89 sal: 34.83
IN2021_T01 2021-06-15 16:50 [view ] -15.7728 146.3892 SST Radiometer [view] Start in2021_t01 Turned on Not sure why it was off
IN2021_T01 2021-06-15 21:02 [view ] -14.9827 146.2648 carbon_in2021_t01
IN2021_T01 2021-06-15 21:11 [view ] -14.9512 146.2598 flowthrough_in2021_t01 Sample 16
IN2021_T01 2021-06-15 21:34 [view ] -14.8800 146.2487 EM122 [view] SVP GSM_in2021_t01 New SVP in2021_t01_sst_027.asvp New SVP in2021_t01_sst_027.asvp sst: 26.72 sal: 34.63
IN2021_T01 2021-06-15 23:16 [view ] -14.5615 146.1987 ASVCO2 Maintenance in2021_t01 Flow rate re-adjusted
IN2021_T01 2021-06-15 23:52 [view ] -14.4472 146.1807 pCO2 [view] Filter Clean in2021_t01 pCO2 filter cleaned
IN2021_T01 2021-06-15 23:53 [view ] -14.4468 146.1807 TSG [view] Filter Clean in2021_t01 TSG filter cleaned
IN2021_T01 2021-06-15 23:54 [view ] -14.4437 146.1802 Fluorometer [view] Cleaned in2021_t01 Fluorometer cleaned
IN2021_T01 2021-06-15 23:54 [view ] -14.4422 146.1800 ASVCO2 Maintenance in2021_t01 Flow rate re-adjusted
IN2021_T01 2021-06-16 02:29 [view ] -13.9933 146.0000 carbon_in2021_t01 DIC Time: 02:29 UTC Alk Time: 02:29 UTC
IN2021_T01 2021-06-16 02:32 [view ] -13.9858 145.9918 flowthrough_in2021_t01 Sample 17
IN2021_T01 2021-06-16 03:47 [view ] -13.8153 145.8085 EM122 [view] SVP GSM_in2021_t01 New SVP in2021_t01_sst_030.asvp New SVP in2021_t01_sst_030.asvp sst: 26.91 sal: 34.60
IN2021_T01 2021-06-16 04:24 [view ] -13.7268 145.7133 UW Seawater lab Maintenance in2021_t01 All flowrates adjusted to try an achieve 5L/min on both meters on the ASVCO2 system. Unable to reach 5L/min. All taps adjusted to previous settings.
IN2021_T01 2021-06-16 07:04 [view ] -13.4120 145.3753 carbon_in2021_t01 DIC Time: 07:04 UTC Alk Time: 07:04 UTC
IN2021_T01 2021-06-16 07:07 [view ] -13.4020 145.3647 flowthrough_in2021_t01 Sample 18
IN2021_T01 2021-06-16 11:03 [view ] -12.7055 145.1482 EM122 [view] SVP GSM_in2021_t01 New SVP in2021_t01_sst_031.asvp New SVP in2021_t01_sst_031.asvp sst: 26.58 sal: 34.78
IN2021_T01 2021-06-16 12:24 [view ] -12.4932 145.1245 CTD [view] 8 in2021_t01 2000m BGC cast
IN2021_T01 2021-06-16 13:57 [view ] -12.4810 145.1248 Fluorometer [view] SIT Cleaned in2021_t01 UWY Fluorometer cleaned after showing very low values
IN2021_T01 2021-06-16 14:29 [view ] -12.4767 145.1247 CTD [view] Retrieved in2021_t01 CTD deployment 8 complete.
IN2021_T01 2021-06-16 15:23 [view ] -12.4812 145.1358 Hydro-Bios tow [view] Woody Drummond Cod end 1 1000m Start in2021_t01
IN2021_T01 2021-06-16 15:38 [view ] -12.4822 145.1397 Hydro-Bios tow [view] Woody Drummond Cod end 1 1000m Stop in2021_t01
IN2021_T01 2021-06-16 15:39 [view ] -12.4822 145.1398 Hydro-Bios tow [view] Woody Drummond Cod end 2 1000m Start in2021_t01
IN2021_T01 2021-06-16 15:53 [view ] -12.4828 145.1432 Hydro-Bios tow [view] Woody Drummond Cod end 2 1000m Stop in2021_t01
IN2021_T01 2021-06-16 16:28 [view ] -12.4852 145.1517 Hydro-Bios tow [view] Woody Drummond Cod end 3 95m Start in2021_t01
IN2021_T01 2021-06-16 16:34 [view ] -12.4857 145.1533 Underway Stephen Tibben Hydrochem Lab : tsg010 Sample TSG_Samples_in2021_t01
IN2021_T01 2021-06-16 16:36 [view ] -12.4858 145.1537 Underway Stephen Tibben Hydrochem Lab : tsg011 Sample TSG_Samples_in2021_t01
IN2021_T01 2021-06-16 16:37 [view ] -12.4860 145.1540 Underway Stephen Tibben Hydrochem Lab : tsg012 Sample TSG_Samples_in2021_t01
IN2021_T01 2021-06-16 16:43 [view ] -12.4863 145.1557 Hydro-Bios tow [view] Woody Drummond Cod end 3 95m Stop in2021_t01
IN2021_T01 2021-06-16 16:45 [view ] -12.4865 145.1562 Hydro-Bios tow [view] Woody Drummond Cod end 4 95m Start in2021_t01
IN2021_T01 2021-06-16 16:59 [view ] -12.4878 145.1597 Hydro-Bios tow [view] Woody Drummond Cod end 4 95m Stop in2021_t01
IN2021_T01 2021-06-16 17:04 [view ] -12.4882 145.1608 Hydro-Bios tow [view] Woody Drummond Cod end 7 10m Start in2021_t01
IN2021_T01 2021-06-16 17:19 [view ] -12.4895 145.1645 Hydro-Bios tow [view] Woody Drummond Cod end 5 10m Stop in2021_t01
IN2021_T01 2021-06-16 17:21 [view ] -12.4895 145.1648 Hydro-Bios tow [view] Woody Drummond Cod end 6 10m Start in2021_t01
IN2021_T01 2021-06-16 17:34 [view ] -12.4907 145.1680 Hydro-Bios tow [view] Woody Drummond Cod end 6 10m Stop in2021_t01
IN2021_T01 2021-06-16 17:42 [view ] -12.4913 145.1700 Multi-net Mammoth [view] Woody Retrieved in2021_t01 HydroBios multinet on board
IN2021_T01 2021-06-16 18:25 [view ] -12.4957 145.1243 CTD [view] 9 Deployed in2021_t01 1000m Station 4
IN2021_T01 2021-06-16 19:29 [view ] -12.4957 145.1243 CTD [view] 9 Retrieved in2021_t01
IN2021_T01 2021-06-16 19:52 [view ] -12.4858 145.1220 ARGO Float [view] in2021_t01 BGC ARGO deployment hull number: P43208-20AU003
IN2021_T01 2021-06-16 20:23 [view ] -12.4000 145.1132 carbon_in2021_t01 DIC Time: 20:23 UTC Alk Time: 20:23 UTC
IN2021_T01 2021-06-16 20:27 [view ] -12.3883 145.1118 flowthrough_in2021_t01 Sample 19
IN2021_T01 2021-06-16 22:15 [view ] -12.0758 145.0778 CCNC [view] Maintenance Atmospherics Flow inlet valve closed Leak testing
IN2021_T01 2021-06-16 22:24 [view ] -12.0472 145.0747 CCNC [view] Maintenance Atmospherics Leak test successful
IN2021_T01 2021-06-16 22:26 [view ] -12.0425 145.0742 CCNC [view] Maintenance Atmospherics CCNC filter check - low particle counts zero values. zero check passed
IN2021_T01 2021-06-16 22:37 [view ] -12.0083 145.0705 CPC 3750 Maintenance Atmospherics Testing two DFUs using 3750 CPC
IN2021_T01 2021-06-16 22:48 [view ] -11.9795 145.0673 CCNC [view] Maintenance Atmospherics DFU changed. Zero test OK. Returned to service
IN2021_T01 2021-06-16 22:56 [view ] -11.9562 145.0648 EM122 [view] SVP GSM_in2021_t01 New SVP in2021_t01_ctd_009.asvp New SVP in2021_t01_ctd_009.asvp
IN2021_T01 2021-06-16 23:24 [view ] -11.8753 145.0560 SMPS [view] Maintenance Atmospherics Flow test Flow test with Gilibrtor :(2x average of 5 samples, cc/min) without impactors : 284, 292 with impactors: 275, 275
IN2021_T01 2021-06-16 23:42 [view ] -11.8255 145.0505 CPC 3750 Fault Atmospherics air leak into the smps sample 16/6 23:26 - I just found that the air inlet tube was not connected properly. air has been sucked into the sampling system since I connected up the SMPS on 13/6 18:55. This will have affected the SMPS, and CPCs. It is possible that it will have affected the.nephelometer and CCNC. It is possible, but I think unlikely, that it also affected the ozone and greenhouse gas system, depending on the interactions in the manifold and sample lines.
IN2021_T01 2021-06-16 23:42 [view ] -11.8255 145.0505 CPC 3772 [view] Fault Atmospherics air leak into the smps sample 16/6 23:26 - I just found that the air inlet tube was not connected properly. air has been sucked into the sampling system since I connected up the SMPS on 13/6 18:55. This will have affected the SMPS, and CPCs. It is possible that it will have affected the.nephelometer and CCNC. It is possible, but I think unlikely, that it also affected the ozone and greenhouse gas system, depending on the interactions in the manifold and sample lines.
IN2021_T01 2021-06-16 23:42 [view ] -11.8255 145.0505 Picarro Spectrometer [view] Fault Atmospherics air leak into the smps sample 16/6 23:26 - I just found that the air inlet tube was not connected properly. air has been sucked into the sampling system since I connected up the SMPS on 13/6 18:55. This will have affected the SMPS, and CPCs. It is possible that it will have affected the.nephelometer and CCNC. It is possible, but I think unlikely, that it also affected the ozone and greenhouse gas system, depending on the interactions in the manifold and sample lines.
IN2021_T01 2021-06-16 23:42 [view ] -11.8255 145.0505 Ozone Monitor [view] Fault Atmospherics air leak into the smps sample 16/6 23:26 - I just found that the air inlet tube was not connected properly. air has been sucked into the sampling system since I connected up the SMPS on 13/6 18:55. This will have affected the SMPS, and CPCs. It is possible that it will have affected the.nephelometer and CCNC. It is possible, but I think unlikely, that it also affected the ozone and greenhouse gas system, depending on the interactions in the manifold and sample lines.
IN2021_T01 2021-06-16 23:42 [view ] -11.8255 145.0505 Nephelometer [view] Fault Atmospherics air leak into the smps sample 16/6 23:26 - I just found that the air inlet tube was not connected properly. air has been sucked into the sampling system since I connected up the SMPS on 13/6 18:55. This will have affected the SMPS, and CPCs. It is possible that it will have affected the.nephelometer and CCNC. It is possible, but I think unlikely, that it also affected the ozone and greenhouse gas system, depending on the interactions in the manifold and sample lines.
IN2021_T01 2021-06-16 23:42 [view ] -11.8255 145.0505 CCNC [view] Fault Atmospherics air leak into the smps sample 16/6 23:26 - I just found that the air inlet tube was not connected properly. air has been sucked into the sampling system since I connected up the SMPS on 13/6 18:55. This will have affected the SMPS, and CPCs. It is possible that it will have affected the.nephelometer and CCNC. It is possible, but I think unlikely, that it also affected the ozone and greenhouse gas system, depending on the interactions in the manifold and sample lines.
IN2021_T01 2021-06-16 23:49 [view ] -11.8063 145.0485 Underway Seawater Data Change in2021_t01 flow restrictor after optode increased
IN2021_T01 2021-06-17 00:16 [view ] -11.7270 145.0398 Underway Seawater Data Change in2021_t01 Instrument clean seawater pump filter changed
IN2021_T01 2021-06-17 00:26 [view ] -11.6988 145.0368 ASVCO2 Change in2021_t01 flow increased to 7.5LPM
IN2021_T01 2021-06-17 00:43 [view ] -11.6498 145.0315 Underway Seawater Data Change in2021_t01 system pressure reduced flow restrictor after optode relaxed. system pressure at 2.0
IN2021_T01 2021-06-17 01:15 [view ] -11.5547 145.0212 EM122 [view] SVP GSM_in2021_t01 New SVP in2021_t01_sst_032.asvp New SVP in2021_t01_sst_032.asvp sst: 26.98 sal: 34.72
IN2021_T01 2021-06-17 02:53 [view ] -11.2657 144.9897 carbon_in2021_t01 DIC Time: 02:53 UTC Alk Time: 02:53 UTC
IN2021_T01 2021-06-17 03:00 [view ] -11.2453 144.9875 flowthrough_in2021_t01 Sample 20
IN2021_T01 2021-06-17 03:27 [view ] -11.1645 144.9787 Underway Seawater Data Change in2021_t01 Flow rates adjusted All flow rates tweaked to obtain a close to 5L/min flow through the ASVCO2
IN2021_T01 2021-06-17 05:38 [view ] -10.7758 144.9365 EM122 [view] SVP GSM_in2021_t01 New SVP in2021_t01_sst_034.asvp New SVP in2021_t01_sst_034.asvp sst: 26.71 sal: 34.8
IN2021_T01 2021-06-17 07:08 [view ] -10.5113 144.9078 Underway Seawater Data Change in2021_t01 Flow rates re-adjusted
IN2021_T01 2021-06-17 07:10 [view ] -10.5073 144.9073 pCO2 [view] Cleaned in2021_t01 pCO2 filter cleaned
IN2021_T01 2021-06-17 07:10 [view ] -10.5060 144.9073 TSG [view] Cleaned in2021_t01 TSG filter cleaned
IN2021_T01 2021-06-17 07:25 [view ] -10.4627 144.9102 flowthrough_in2021_t01 Sample 21
IN2021_T01 2021-06-17 08:12 [view ] -10.3295 144.9448 Underway Seawater Data SIT in2021_t01 Isolate Instr Clean seawater to fix leak TSG inlet filter developed slow leak. Shut off supply, inspected O-ring, cleaned O-ring groove and restarted flow.
IN2021_T01 2021-06-17 10:52 [view ] -9.9107 144.8540 EM122 [view] SVP GSM_in2021_t01 New SVP in2021_t01_sst_035.asvp New SVP in2021_t01_sst_035.asvp sst: 26.92 sal: 34.54
IN2021_T01 2021-06-17 11:39 [view ] -9.7983 144.7615 EM122 [view] SVP GSM_in2021_t01 New SVP in2021_t01_sst_036.asvp New SVP in2021_t01_sst_036.asvp sst: 26.75 sal: 34.51
IN2021_T01 2021-06-17 11:39 [view ] -9.7983 144.7615 EM710 [view] SVP GSM_in2021_t01 New SVP in2021_t01_sst_036.asvp New SVP in2021_t01_sst_036.asvp sst: 26.75 sal: 34.51
IN2021_T01 2021-06-17 11:40 [view ] -9.7957 144.7595 EM710 [view] Start GSM_in2021_t01 Commence Logging EM710
IN2021_T01 2021-06-17 12:21 [view ] -9.6957 144.6768 EK80 [view] Depth Mode GSM_in2021_t01 Change to shallow IMOS settings Change to shallow IMOS settings 250m
IN2021_T01 2021-06-17 12:25 [view ] -9.6872 144.6700 EM122 [view] Stop GSM_in2021_t01 Stop logging EM122 Stop logging EM122 ~100m WD
IN2021_T01 2021-06-17 15:45 [view ] -9.2615 144.2728 EM710 [view] SVP GSM_in2021_t01 New SVP in2021_t01_sst_037.asvp New SVP in2021_t01_sst_037.asvp sst: 27.37 sal: 34.19
IN2021_T01 2021-06-17 17:44 [view ] -9.2160 143.9495 EM710 [view] SVP GSM_in2021_t01 New SVP in2021_t01_sst_038.asvp New SVP in2021_t01_sst_038.asvp sst: 27.5 sal: 33.48
IN2021_T01 2021-06-17 21:07 [view ] -9.4838 143.4837 EM710 [view] SVP GSM_in2021_t01 New SVP in2021_t01_sst_039.asvp New SVP in2021_t01_sst_039.asvp sst: 27.45 sal: 33.48
IN2021_T01 2021-06-17 21:27 [view ] -9.5175 143.4530 Underway Seawater Data Change in2021_t01 Flow rates re-adjusted
IN2021_T01 2021-06-17 22:06 [view ] -9.5533 143.4205 EM710 [view] SVP GSM_in2021_t01 New SVP in2021_t01_sst_040.asvp New SVP in2021_t01_sst_040.asvp sst: 27.46 sal: 33.26
IN2021_T01 2021-06-18 00:13 [view ] -9.8427 143.1567 EM710 [view] SVP GSM_in2021_t01 New SVP in2021_t01_sst_041.asvp New SVP in2021_t01_sst_041.asvp sst: 27.22 sal: 33.88
IN2021_T01 2021-06-18 01:48 [view ] -10.0818 143.0187 EM710 [view] SVP GSM_in2021_t01 New SVP in2021_t01_sst_041.asvp New SVP in2021_t01_sst_041.asvp sst: 27.04 sal: 34.56
IN2021_T01 2021-06-18 03:19 [view ] -10.2953 142.8585 flowthrough_in2021_t01 Sample 22
IN2021_T01 2021-06-18 09:16 [view ] -10.6078 141.8188 flowthrough_in2021_t01 Sample 23
IN2021_T01 2021-06-18 10:08 [view ] -10.6202 141.6695 Other [view] Stop GSM_in2021_t01 Shutdown Acoustics for AMP Mapping Prepare for AMP Mapping West of Cape York All acoustic systems apart from EM710 shutdown ADCP SBP120 EK80
IN2021_T01 2021-06-18 10:19 [view ] -10.6232 141.6373 Radon Detector [view] Start Atmospherics Restart after software run time error
IN2021_T01 2021-06-18 13:41 [view ] -10.7367 141.1258 EM710 [view] Start GSM_in2021_t01 Commence Survey AMP Commence Survey AMP running X-Line 1
IN2021_T01 2021-06-18 14:56 [view ] -10.7037 141.1163 EM710 [view] SVP GSM_in2021_t01 New SVP in2021_t01_rctd_002.asvp New SVP in2021_t01_rctd_002.asvp
IN2021_T01 2021-06-18 16:15 [view ] -10.7250 141.1243 EM710 [view] SVP GSM_in2021_t01 New SVP in2021_t01_rctd_003.asvp New SVP in2021_t01_rctd_003.asvp
IN2021_T01 2021-06-18 18:11 [view ] -10.7267 141.1055 EM710 [view] SVP GSM_in2021_t01 New SVP in2021_t01_rctd_004.asvp New SVP in2021_t01_rctd_004.asvp
IN2021_T01 2021-06-18 19:27 [view ] -10.7055 141.1257 EM710 [view] Crash GSM_in2021_t01 Qinsy Crash Qinsy Crash
IN2021_T01 2021-06-18 19:43 [view ] -10.7135 141.1317 EM710 [view] SVP GSM_in2021_t01 New SVP in2021_t01_rctd_005.asvp New SVP in2021_t01_rctd_005.asvp
IN2021_T01 2021-06-18 20:32 [view ] -10.7295 141.1363 EM710 [view] Crash GSM_in2021_t01 QINSy Crashes - Problems with grid/surface QINSy repeatedly crashing generated new dynamic surface from qimera project at 5m resolution imported to qinsy. Stable now.
IN2021_T01 2021-06-18 22:00 [view ] -10.7232 141.1132 EM710 [view] SVP GSM_in2021_t01 New SVP in2021_t01_rctd_006.asvp New SVP in2021_t01_rctd_006.asvp
IN2021_T01 2021-06-19 00:01 [view ] -10.7242 141.1243 EM710 [view] SVP GSM_in2021_t01 New SVP in2021_t01_rctd_007.asvp New SVP in2021_t01_rctd_007.asvp
IN2021_T01 2021-06-19 00:16 [view ] -10.7162 141.1350 Underway Seawater Data Cleaned in2021_t01 Fluorometer cleaned, filters cleaned
IN2021_T01 2021-06-19 01:29 [view ] -10.7045 141.1033 EM710 [view] SVP GSM_in2021_t01 New SVP in2021_t01_rctd_008.asvp New SVP in2021_t01_rctd_008.asvp
IN2021_T01 2021-06-19 06:02 [view ] -10.6695 141.0813 Other [view] Start GSM_in2021_t01 Restart Acoustics after AMP survey Restart Acoustics after AMP survey restart following instruments SBP120 EK80 ADCP
IN2021_T01 2021-06-19 06:25 [view ] -10.6437 141.0853 Underway Stephen Tibben Hydrochem Lab : tsg013 Sample TSG_Samples_in2021_t01
IN2021_T01 2021-06-19 06:26 [view ] -10.6437 141.0853 Underway Stephen Tibben Hydrochem Lab : tsg014 Sample TSG_Samples_in2021_t01
IN2021_T01 2021-06-19 06:27 [view ] -10.6437 141.0853 Underway Stephen Tibben Hydrochem Lab : tsg015 Sample TSG_Samples_in2021_t01
IN2021_T01 2021-06-19 06:30 [view ] -10.6437 141.0853 CTD [view] 10 Deployed in2021_t01
IN2021_T01 2021-06-19 06:44 [view ] -10.6435 141.0853 CTD [view] 010 Recover in2021_t01
IN2021_T01 2021-06-19 07:03 [view ] -10.6435 141.0862 Hydro-Bios tow [view] Woody Drummond net 1 Start in2021_t01
IN2021_T01 2021-06-19 07:18 [view ] -10.6453 141.0880 Hydro-Bios tow [view] Net 2 in2021_t01
IN2021_T01 2021-06-19 07:18 [view ] -10.6455 141.0880 Hydro-Bios tow [view] Woody Drummond net 1 Stop in2021_t01
IN2021_T01 2021-06-19 09:56 [view ] -10.6455 140.9332 flowthrough_in2021_t01 Sample 24
IN2021_T01 2021-06-19 12:24 [view ] -10.6523 140.4782 flowthrough_in2021_t01 Sample 25
IN2021_T01 2021-06-19 15:32 [view ] -10.6615 139.8763 EM710 [view] SVP GSM_in2021_t01 New SVP in2021_t01_sst_043.asvp New SVP in2021_t01_sst_043.asvp sst: 27.77 sal:34.39
IN2021_T01 2021-06-19 17:25 [view ] -10.6672 139.5075 Underway Seawater Data Change in2021_t01 Flow rates adjusted Lab pressure was too high. restrictor reduced, tsg increased, fluoro and pco2 slightly increased
IN2021_T01 2021-06-19 19:30 [view ] -10.8558 139.1973 EM710 [view] SVP GSM_in2021_t01 New SVP in2021_t01_sst_044.asvp New SVP in2021_t01_sst_044.asvp sst: 27.91 sal: 34.40
IN2021_T01 2021-06-19 21:31 [view ] -10.6788 138.8767 EM710 [view] SVP GSM_in2021_t01 New SVP in2021_t01_sst_045.asvp New SVP in2021_t01_sst_045.asvp sst: 27.80 sal: 34.00
IN2021_T01 2021-06-19 23:00 [view ] -10.6837 138.5897 flowthrough_in2021_t01 sample 26
IN2021_T01 2021-06-20 00:21 [view ] -10.6870 138.4047 EM710 [view] SVP GSM_in2021_t01 New SVP in2021_t01_sst_047.asvp New SVP in2021_t01_sst_047.asvp sst: 27.84 sal: 34.08
IN2021_T01 2021-06-20 01:56 [view ] -10.6907 138.1827 EM710 [view] SVP GSM_in2021_t01 New SVP in2021_t01_sst_048.asvp New SVP in2021_t01_sst_048.asvp sst: 27.89 sal: 34.14
IN2021_T01 2021-06-20 03:06 [view ] -10.6935 138.0197 EM710 [view] SVP GSM_in2021_t01 New SVP in2021_t01_sst_049.asvp New SVP in2021_t01_sst_049.asvp sst: 27.74 sal: 34.01
IN2021_T01 2021-06-20 04:27 [view ] -10.6962 137.8567 flowthrough_in2021_t01 Sample 27
IN2021_T01 2021-06-20 04:36 [view ] -10.6958 137.8382 EM710 [view] SVP GSM_in2021_t01 New SVP in2021_t01_sst_050.asvp New SVP in2021_t01_sst_050.asvp sst: 27.61 sal: 33.83
IN2021_T01 2021-06-20 07:53 [view ] -10.7030 137.4568 EM710 [view] SVP GSM_in2021_t01 New SVP in2021_t01_sst_051.asvp New SVP in2021_t01_sst_051.asvp sst: 27.58 sal:33.99
IN2021_T01 2021-06-20 11:10 [view ] -10.7090 137.1072 CTD [view] 11 Deployed in2021_t01
IN2021_T01 2021-06-20 11:12 [view ] -10.7082 137.1098 flowthrough_in2021_t01 Sample 28
IN2021_T01 2021-06-20 11:46 [view ] -10.7090 137.1077 CTD [view] 11 Retrieved in2021_t01
IN2021_T01 2021-06-20 14:58 [view ] -10.7103 137.1085 Hydro Bios tow [view] Woody Drummond 6 Start in2021_t01 Start Station 6 Hydro-Bios tow
IN2021_T01 2021-06-20 15:42 [view ] -10.7375 137.1220 Hydro Bios tow [view] Woody Drummond 6 Stop in2021_t01 End of tow at station 6
IN2021_T01 2021-06-20 16:12 [view ] -10.7137 136.8148 EM710 [view] SVP GSM_in2021_t01 New SVP in2021_t01_sst_052.asvp New SVP in2021_t01_sst_052.asvp sst: 27.23 sal:34.07
IN2021_T01 2021-06-20 18:07 [view ] -10.7185 136.5162 EM710 [view] SVP GSM_in2021_t01 New SVP in2021_t01_sst_053.asvp New SVP in2021_t01_sst_053.asvp sst: 27.50 sal: 34.18
IN2021_T01 2021-06-20 20:58 [view ] -10.7265 136.0158 flowthrough_in2021_t01 Sample 29
IN2021_T01 2021-06-20 23:02 [view ] -10.7330 135.6155 ASVCO2 Change in2021_t01 adjusted flow rate to 3.00 per side
IN2021_T01 2021-06-20 23:13 [view ] -10.7335 135.5807 EM710 [view] SVP GSM_in2021_t01 New SVP in2021_t01_sst_054.asvp New SVP in2021_t01_sst_054.asvp sst: 27.41 sal: 34.17
IN2021_T01 2021-06-20 23:16 [view ] -10.7337 135.5705 TSG [view] Maintenance in2021_t01 Filter Cleaned
IN2021_T01 2021-06-20 23:16 [view ] -10.7337 135.5705 ASVCO2 Maintenance in2021_t01 temporary break in flow while other instruments were cleaned
IN2021_T01 2021-06-20 23:16 [view ] -10.7337 135.5705 Fluorometer [view] Maintenance in2021_t01 Cleaned
IN2021_T01 2021-06-20 23:16 [view ] -10.7337 135.5705 pCO2 [view] Maintenance in2021_t01 Filter Cleaned
IN2021_T01 2021-06-21 00:28 [view ] -10.7370 135.3608 CPC 3750 Maintenance Atmospherics DFU tested. Filter tests poor.
IN2021_T01 2021-06-21 00:37 [view ] -10.7375 135.3343 EM710 [view] SVP GSM_in2021_t01 New SVP in2021_t01_sst_055.asvp New SVP in2021_t01_sst_055.asvp sst: 27.24 sal: 34.16
IN2021_T01 2021-06-21 00:45 [view ] -10.7378 135.3127 CCNC [view] Maintenance Atmospherics milliq replenished, zero readings OK
IN2021_T01 2021-06-21 02:33 [view ] -10.7427 135.0092 flowthrough_in2021_t01 Sample 30
IN2021_T01 2021-06-21 03:07 [view ] -10.7442 134.9172 EM710 [view] SVP GSM_in2021_t01 New SVP in2021_t01_sst_056.asvp New SVP in2021_t01_sst_056.asvp sst: 27.34 sal: 34.02
IN2021_T01 2021-06-21 05:25 [view ] -10.7505 134.5233 Nephelometer [view] Maintenance Atmospherics Swap out CO2 cylinder and regulator (cylinder fitting swap)
IN2021_T01 2021-06-21 07:07 [view ] -10.7552 134.2312 EM710 [view] SVP GSM_in2021_t01 New SVP in2021_t01_sst_057.asvp New SVP in2021_t01_sst_057.asvp sst: 27.69 sal: 34.15
IN2021_T01 2021-06-21 07:46 [view ] -10.7568 134.1223 SMPS [view] Maintenance Atmospherics condensate drain
IN2021_T01 2021-06-21 09:11 [view ] -10.7685 133.4025 flowthrough_in2021_t01 sample 31
IN2021_T01 2021-06-21 12:51 [view ] -10.7713 133.2290 flowthrough_in2021_t01 sample 32
IN2021_T01 2021-06-21 13:38 [view ] -10.7735 133.0922 EM710 [view] SVP GSM_in2021_t01 New SVP in2021_t01_sst_058.asvp New SVP in2021_t01_sst_058.asvp sst: 27.54 sal: 34.37
IN2021_T01 2021-06-21 17:00 [view ] -10.7827 132.5228 EM710 [view] SVP GSM_in2021_t01 New SVP in2021_t01_sst_059.asvp New SVP in2021_t01_sst_059.asvp sst: 27.05 sal: 34.17
IN2021_T01 2021-06-21 19:14 [view ] -10.7887 132.1452 EM710 [view] SVP GSM_in2021_t01 New SVP in2021_t01_sst_060.asvp New SVP in2021_t01_sst_060.asvp sst: 27.45 sal: 34.23
IN2021_T01 2021-06-21 21:34 [view ] -10.7847 131.7462 flowthrough_in2021_t01 Sample 33
IN2021_T01 2021-06-21 23:02 [view ] -10.7790 131.5263 EM710 [view] Stop GSM_in2021_t01 Stop logging EM710 for CTD Station 007 Stop logging EM710 for CTD Station 007
IN2021_T01 2021-06-21 23:05 [view ] -10.7788 131.5263 CTD [view] 12 Deployed in2021_t01
IN2021_T01 2021-06-21 23:19 [view ] -10.7775 131.5265 Underway Stephen Tibben Hydrochem Lab : tsg016 Sample TSG_Samples_in2021_t01
IN2021_T01 2021-06-21 23:20 [view ] -10.7773 131.5265 Underway Stephen Tibben Hydrochem Lab : tsg017 Sample TSG_Samples_in2021_t01
IN2021_T01 2021-06-21 23:21 [view ] -10.7772 131.5265 Underway Stephen Tibben Hydrochem Lab : tsg018 Sample TSG_Samples_in2021_t01
IN2021_T01 2021-06-21 23:24 [view ] -10.7768 131.5265 CTD [view] 12 Retrieved in2021_t01
IN2021_T01 2021-06-21 23:37 [view ] -10.7763 131.5270 EM710 [view] Start GSM_in2021_t01 Start logging EM710
IN2021_T01 2021-06-21 23:40 [view ] -10.7763 131.5277 Multi net Mammoth [view] Woody Deployed in2021_t01 deployed
IN2021_T01 2021-06-21 23:43 [view ] -10.7763 131.5287 Multi net Mammoth [view] Woody Change in2021_t01 net released
IN2021_T01 2021-06-21 23:58 [view ] -10.7772 131.5335 Multi net Mammoth [view] Woody Change in2021_t01 net released
IN2021_T01 2021-06-22 00:15 [view ] -10.7780 131.5385 Multi net Mammoth [view] Woody Start in2021_t01 net released
IN2021_T01 2021-06-22 00:30 [view ] -10.7792 131.5432 Multi net Mammoth [view] Woody Start in2021_t01 net released
IN2021_T01 2021-06-22 00:47 [view ] -10.7808 131.5478 Multi net Mammoth [view] Woody Start in2021_t01 net released
IN2021_T01 2021-06-22 00:59 [view ] -10.7822 131.5510 Multi net Mammoth [view] Woody Start in2021_t01 net released
IN2021_T01 2021-06-22 01:20 [view ] -10.7843 131.5575 Multi net Mammoth [view] Woody Retrieved in2021_t01 Net recovered to deck
IN2021_T01 2021-06-22 01:50 [view ] -10.7820 131.5038 EM710 [view] SVP GSM_in2021_t01 New SVP in2021_t01_ctd_012.asvp New SVP in2021_t01_ctd_012.asvp
IN2021_T01 2021-06-22 03:18 [view ] -10.7927 131.2688 flowthrough_in2021_t01 Sample 34
IN2021_T01 2021-06-22 03:54 [view ] -10.7970 131.1760 EM710 [view] SVP GSM_in2021_t01 New SVP in2021_t01_sst_061.asvp New SVP in2021_t01_sst_061.asvp sst: 27.89 sal: 34.36
IN2021_T01 2021-06-22 05:16 [view ] -10.8072 130.9520 EM710 [view] SVP GSM_in2021_t01 New SVP in2021_t01_sst_062.asvp New SVP in2021_t01_sst_062.asvp sst: 27.87 sal: 34.11
IN2021_T01 2021-06-22 06:33 [view ] -10.8165 130.7448 flowthrough_in2021_t01 Tests/Extras 1-19
IN2021_T01 2021-06-22 06:53 [view ] -10.8190 130.6912 flowthrough_in2021_t01 Sample 35
IN2021_T01 2021-06-22 09:12 [view ] -10.8357 130.3222 Port test VSAT Download=7Mbs with ship traffic Download=8.8Mbs without ship traffic Upload=7.6Mbs without ship traffic
IN2021_T01 2021-06-22 12:50 [view ] -11.1552 129.9718 EM710 [view] SVP GSM_in2021_t01 New SVP in2021_t01_sst_063.asvp New SVP in2021_t01_sst_063.asvp sst: 28.31 sal: 34.40
IN2021_T01 2021-06-22 17:57 [view ] -11.9785 129.9775 EM710 [view] SVP GSM_in2021_t01 New SVP in2021_t01_sst_064.asvp New SVP in2021_t01_sst_064.asvp sst: 27.95 sal: 34.55
IN2021_T01 2021-06-22 21:17 [view ] -12.2108 130.4618 UW Seawater lab Stop in2021_t01 systems turned off
IN2021_T01 2021-06-22 21:37 [view ] -12.2307 130.5032 EM710 [view] SVP GSM_in2021_t01 New SVP in2021_t01_sst_065.asvp New SVP in2021_t01_sst_065.asvp sst: 27.13 sal: 34.42
IN2021_T01 2021-06-22 22:06 [view ] -12.2577 130.5595 EK80 [view] Stop GSM_in2021_t01 Stop Logging and Pinging Drop Keels moved to Flush with Hull Stop Logging and Pinging Drop Keels moved to Flush with Hull
IN2021_T01 2021-06-22 22:06 [view ] -12.2577 130.5595 ADCP [view] Stop in2021_t01 Stopped for end of voyage as drop keel was raised
IN2021_T01 2021-06-22 22:15 [view ] -12.2647 130.5742 Drop Keels Change in2021_t01 port drop keel moved to flush with hull
IN2021_T01 2021-06-22 22:31 [view ] -12.2792 130.6047 Underway Seawater Data Stop in2021_t01 Pump stopped. Sampling systems stopped and maintenance performed
IN2021_T01 2021-06-22 22:33 [view ] -12.2812 130.6085 Weather Radar [view] Stop in2021_t01 transmitter stopped with key for port period
IN2021_T01 2021-06-22 22:35 [view ] -12.2833 130.6132 SST Radiometer [view] Stop in2021_t01 shutter closed, switched off for port
IN2021_T01 2021-06-22 22:46 [view ] -12.2947 130.6367 Picarro Spectrometer [view] Maintenance Atmospherics Cal run started
IN2021_T01 2021-06-23 00:30 [view ] -12.4337 130.7880 SBP [view] Stop GSM_in2021_t01 Stop logging and pinging SBP Stop logging and pinging SBP, darwin approach. No visible sub bottom signal before multiple.
IN2021_T01 2021-06-23 01:30 [view ] -12.4727 130.8468 EM710 [view] Stop GSM_in2021_t01 Stop logging and pinging EM710 coming alongside Darwin berth Stop logging and pinging EM710 coming alongside Darwin berth
IN2021_T01 2021-06-23 02:07 [view ] -12.4718 130.8468 QINSy Stop GSM_in2021_t01
IN2021_T01 2021-06-23 02:07 [view ] -12.4718 130.8468 Gravity Meter [view] Stop GSM_in2021_t01 Shutdown Gravity meter alongside Darwin
IN2021_T01 2021-06-23 02:21 [view ] -12.4718 130.8468 Techsas1 [view] Stop in2021_t01
IN2021_T01 2021-06-23 02:22 [view ] -12.4718 130.8468 Techsas2 [view] Stop in2021_t01

Save this list as

NCMI Information and Data Centre  »  Applications  »  Data Trawler